Flag for Mauritania Weather past 2 weeks in Nouakchott, Mauritania

Now
72 °F

Clear.


Feels Like: 74 °F
Forecast: 67 / 85 °F
Wind: 7 mph from North

Location: Nouakchott Airport

Current Time: Apr 18, 2015 at 9:55:59 AM

Latest Report: Apr 18, 2015 at 9:00 AM


Visibility: 4 mi

Pressure: 29.89 "Hg

Humidity: 73%

Dew point: 63 °F

Location of NouakchottLocation

Historic Weather in Nouakchott — Graph

°F

Nouakchott temperature yesterday

Maximum temperature yesterday: 86 °F (at 11:00 AM)
Minimum temperature yesterday: 68 °F (at 5:30 AM)
Average temperature yesterday: 74 °F

Past Weeks' High & Low Weather Summary

 TemperatureHumidityPressure
High106 °F (Apr 11, 1:30 PM)88% (Apr 4, 2:00 AM)29.98 "Hg (Apr 4, 2:00 AM)
Low64 °F (Apr 7, 6:00 AM)9% (Apr 11, 1:30 PM)29.74 "Hg (Apr 16, 5:00 PM)
Average76 °F53%29.86 "Hg
* Reported Apr 3 8:00 AM — Apr 18 8:30 AM, Nouakchott, Weather by CustomWeather, © 2015

Note: Actual official high and low records may vary slightly from our data, if they occured in-between our weather recording intervals... More about our weather records

Advertising

Nouakchott weather history for previous 24 hours

 ConditionsComfort  
Time TempWeatherWind HumidityBarometerVisibility
8:30 AM
Sat, Apr 18
70 °FClear.7 mph83%29.89 "Hg4 mi
8:00 AM68 °FClear.7 mph83%29.89 "Hg4 mi
7:30 AM68 °FClear.7 mph83%29.89 "Hg4 mi
7:00 AM66 °FClear.6 mph88%29.86 "Hg4 mi
6:30 AM68 °FClear.7 mph83%29.86 "Hg5 mi
6:00 AM68 °FClear.8 mph83%29.86 "Hg5 mi
5:30 AM66 °FClear.6 mph88%29.86 "Hg5 mi
5:00 AM66 °FClear.6 mph88%29.86 "Hg5 mi
4:30 AM66 °FClear.6 mph83%29.86 "Hg5 mi
4:00 AM66 °FClear.6 mph83%29.86 "Hg5 mi
3:30 AM66 °FClear.6 mph83%29.86 "Hg5 mi
3:00 AM68 °FClear.7 mph78%29.86 "Hg5 mi
2:30 AM68 °FClear.10 mph78%29.86 "Hg5 mi
2:00 AM68 °FClear.10 mph78%29.86 "Hg5 mi
1:30 AM70 °FClear.10 mph73%29.86 "Hg5 mi
1:00 AM70 °FClear.9 mph73%29.86 "Hg5 mi
12:30 AM70 °FClear.10 mph73%29.86 "Hg5 mi
12:00 AM70 °FClear.12 mph73%29.89 "Hg5 mi
11:30 PM
Fri, Apr 17
70 °FClear.13 mph73%29.89 "Hg5 mi
11:00 PM70 °FClear.13 mph73%29.89 "Hg5 mi
10:30 PM70 °FClear.13 mph73%29.89 "Hg5 mi
10:00 PM70 °FClear.13 mph73%29.89 "Hg5 mi
9:30 PM70 °FClear.12 mph73%29.86 "Hg5 mi
9:00 PM70 °FClear.14 mph73%29.86 "Hg5 mi
8:30 PM70 °FClear.13 mph73%29.86 "Hg5 mi
8:00 PM70 °FClear.13 mph73%29.83 "Hg5 mi
7:30 PM72 °FClear.13 mph65%29.83 "Hg5 mi
7:00 PM72 °FClear.10 mph65%29.80 "Hg5 mi
6:30 PM73 °FClear.13 mph61%29.80 "Hg5 mi
6:00 PM75 °FClear.15 mph57%29.80 "Hg5 mi
5:30 PM75 °FClear.12 mph57%29.80 "Hg5 mi
5:00 PM75 °FClear.15 mph61%29.80 "Hg5 mi
4:30 PM75 °FClear.15 mph61%29.80 "Hg5 mi
4:00 PM77 °FClear.14 mph57%29.80 "Hg5 mi
3:30 PM79 °FClear.13 mph54%29.80 "Hg5 mi
3:00 PM79 °FClear.13 mph54%29.80 "Hg5 mi
2:30 PM81 °FClear.10 mph51%29.83 "Hg5 mi
2:00 PM82 °FClear.10 mph48%29.83 "Hg4 mi
1:30 PM84 °FClear.10 mph43%29.83 "Hg4 mi
1:00 PM82 °FClear.9 mph45%29.86 "Hg4 mi
12:30 PM82 °FClear.9 mph48%29.86 "Hg4 mi
12:00 PM81 °FClear.9 mph51%29.86 "Hg4 mi
11:30 AM82 °FClear.8 mph51%29.86 "Hg4 mi
11:00 AM86 °FClear.6 mph46%29.86 "Hg4 mi
10:30 AM82 °FClear.7 mph37%29.86 "Hg4 mi
10:00 AM81 °FClear.8 mph39%29.86 "Hg4 mi
9:30 AM77 °FClear.9 mph51%29.86 "Hg4 mi
9:00 AM73 °FClear.8 mph69%29.83 "Hg4 mi
Weather by CustomWeather, © 2015

See weather overviewHow to use our weather pages